Year,Month,Day,Hour,Minute,Value (Times are PST for windspeed in km/hr)
2014,02,16,00,00,22.80
2014,02,16,00,01,21.30
2014,02,16,00,02,20.80
2014,02,16,00,03,21.20
2014,02,16,00,04,15.70
2014,02,16,00,05,13.10
2014,02,16,00,06,17.30
2014,02,16,00,07,22.60
2014,02,16,00,08,15.00
2014,02,16,00,09,18.30
2014,02,16,00,10,14.60
2014,02,16,00,11,13.90
2014,02,16,00,12,16.00
2014,02,16,00,13,19.20
2014,02,16,00,14,21.30
2014,02,16,00,15,19.20
2014,02,16,00,16,24.30
2014,02,16,00,17,21.80
2014,02,16,00,18,17.80
2014,02,16,00,19,22.10
2014,02,16,00,20,17.90
2014,02,16,00,21,21.30
2014,02,16,00,22,15.50
2014,02,16,00,23,12.70
2014,02,16,00,24,13.00
2014,02,16,00,25,12.40
2014,02,16,00,26,16.90
2014,02,16,00,27,20.90
2014,02,16,00,28,18.30
2014,02,16,00,29,19.90
2014,02,16,00,30,13.50
2014,02,16,00,31,15.50
2014,02,16,00,32,19.60
2014,02,16,00,33,17.10
2014,02,16,00,34,18.00
2014,02,16,00,35,16.60
2014,02,16,00,36,15.20
2014,02,16,00,37,11.70
2014,02,16,00,38,14.90
2014,02,16,00,39,7.20
2014,02,16,00,40,28.00
2014,02,16,00,41,16.30
2014,02,16,00,42,15.00
2014,02,16,00,43,21.20
2014,02,16,00,44,15.30
2014,02,16,00,45,13.00
2014,02,16,00,46,10.50
2014,02,16,00,47,17.10
2014,02,16,00,48,15.20
2014,02,16,00,49,19.50
2014,02,16,00,50,16.50
2014,02,16,00,51,10.40
2014,02,16,00,52,9.80
2014,02,16,00,53,8.20
2014,02,16,00,54,20.40
2014,02,16,00,55,10.60
2014,02,16,00,56,21.20
2014,02,16,00,57,17.40
2014,02,16,00,58,10.40
2014,02,16,00,59,21.80
2014,02,16,01,00,18.00
2014,02,16,01,01,15.40
2014,02,16,01,02,13.20
2014,02,16,01,03,12.20
2014,02,16,01,04,15.10
2014,02,16,01,05,14.30
2014,02,16,01,06,15.70
2014,02,16,01,07,12.50
2014,02,16,01,08,17.10
2014,02,16,01,09,12.70
2014,02,16,01,10,6.80
2014,02,16,01,11,8.60
2014,02,16,01,12,16.20
2014,02,16,01,13,20.40
2014,02,16,01,14,14.60
2014,02,16,01,15,17.00
2014,02,16,01,16,12.60
2014,02,16,01,17,14.30
2014,02,16,01,18,6.50
2014,02,16,01,19,14.20
2014,02,16,01,20,7.90
2014,02,16,01,21,9.30
2014,02,16,01,22,9.70
2014,02,16,01,23,7.60
2014,02,16,01,24,13.00
2014,02,16,01,25,18.20
2014,02,16,01,26,8.90
2014,02,16,01,27,16.30
2014,02,16,01,28,10.40
2014,02,16,01,29,10.30
2014,02,16,01,30,15.80
2014,02,16,01,31,10.60
2014,02,16,01,32,9.50
2014,02,16,01,33,11.60
2014,02,16,01,34,11.60
2014,02,16,01,35,14.20
2014,02,16,01,36,10.50
2014,02,16,01,37,13.60
2014,02,16,01,38,10.80
2014,02,16,01,39,12.00
2014,02,16,01,40,12.30
2014,02,16,01,41,15.60
2014,02,16,01,42,11.60
2014,02,16,01,43,20.90
2014,02,16,01,44,19.80
2014,02,16,01,45,13.80
2014,02,16,01,46,13.30
2014,02,16,01,47,15.40
2014,02,16,01,48,13.40
2014,02,16,01,49,11.40
2014,02,16,01,50,14.50
2014,02,16,01,51,9.40
2014,02,16,01,52,11.00
2014,02,16,01,53,14.60
2014,02,16,01,54,24.80
2014,02,16,01,55,13.90
2014,02,16,01,56,13.70
2014,02,16,01,57,9.70
2014,02,16,01,58,10.90
2014,02,16,01,59,19.90
2014,02,16,02,00,10.80
2014,02,16,02,01,10.00
2014,02,16,02,02,15.10
2014,02,16,02,03,14.10
2014,02,16,02,04,20.20
2014,02,16,02,05,12.60
2014,02,16,02,06,13.70
2014,02,16,02,07,16.20
2014,02,16,02,08,9.90
2014,02,16,02,09,13.40
2014,02,16,02,10,10.30
2014,02,16,02,11,13.80
2014,02,16,02,12,16.60
2014,02,16,02,13,16.30
2014,02,16,02,14,14.40
2014,02,16,02,15,8.80
2014,02,16,02,16,13.40
2014,02,16,02,17,12.10
2014,02,16,02,18,11.10
2014,02,16,02,19,13.50
2014,02,16,02,20,12.10
2014,02,16,02,21,10.10
2014,02,16,02,22,14.90
2014,02,16,02,23,12.70
2014,02,16,02,24,17.20
2014,02,16,02,25,19.50
2014,02,16,02,26,13.20
2014,02,16,02,27,11.30
2014,02,16,02,28,12.20
2014,02,16,02,29,14.30
2014,02,16,02,30,9.50
2014,02,16,02,31,12.60
2014,02,16,02,32,12.10
2014,02,16,02,33,10.10
2014,02,16,02,34,8.40
2014,02,16,02,35,10.60
2014,02,16,02,36,13.70
2014,02,16,02,37,15.20
2014,02,16,02,38,9.10
2014,02,16,02,39,4.70
2014,02,16,02,40,1.50
2014,02,16,02,41,10.90
2014,02,16,02,42,16.70
2014,02,16,02,43,12.70
2014,02,16,02,44,12.20
2014,02,16,02,45,10.00
2014,02,16,02,46,10.80
2014,02,16,02,47,8.60
2014,02,16,02,48,15.40
2014,02,16,02,49,13.80
2014,02,16,02,50,9.80
2014,02,16,02,51,9.10
2014,02,16,02,52,9.50
2014,02,16,02,53,8.60
2014,02,16,02,54,14.60
2014,02,16,02,55,12.80
2014,02,16,02,56,15.50
2014,02,16,02,57,15.90
2014,02,16,02,58,14.40
2014,02,16,02,59,16.20
2014,02,16,03,00,19.50
2014,02,16,03,01,9.60
2014,02,16,03,02,11.60
2014,02,16,03,03,11.30
2014,02,16,03,04,7.70
2014,02,16,03,05,5.70
2014,02,16,03,06,7.70
2014,02,16,03,07,10.50
2014,02,16,03,08,10.30
2014,02,16,03,09,9.40
2014,02,16,03,10,6.80
2014,02,16,03,11,6.80
2014,02,16,03,12,6.40
2014,02,16,03,13,6.80
2014,02,16,03,14,5.20
2014,02,16,03,15,6.90
2014,02,16,03,16,5.20
2014,02,16,03,17,7.70
2014,02,16,03,18,6.90
2014,02,16,03,19,8.00
2014,02,16,03,20,6.20
2014,02,16,03,21,6.80
2014,02,16,03,22,6.80
2014,02,16,03,23,7.70
2014,02,16,03,24,9.30
2014,02,16,03,25,7.80
2014,02,16,03,26,4.20
2014,02,16,03,27,3.10
2014,02,16,03,28,4.00
2014,02,16,03,29,7.80
2014,02,16,03,30,5.00
2014,02,16,03,31,6.50
2014,02,16,03,32,2.30
2014,02,16,03,33,6.80
2014,02,16,03,34,6.90
2014,02,16,03,35,8.80
2014,02,16,03,36,11.30
2014,02,16,03,37,7.20
2014,02,16,03,38,10.30
2014,02,16,03,39,19.10
2014,02,16,03,40,6.80
2014,02,16,03,41,12.70
2014,02,16,03,42,8.20
2014,02,16,03,43,4.80
2014,02,16,03,44,4.30
2014,02,16,03,45,6.50
2014,02,16,03,46,6.40
2014,02,16,03,47,4.80
2014,02,16,03,48,13.80
2014,02,16,03,49,12.50
2014,02,16,03,50,14.20
2014,02,16,03,51,11.10
2014,02,16,03,52,11.30
2014,02,16,03,53,8.50
2014,02,16,03,54,8.50
2014,02,16,03,55,16.30
2014,02,16,03,56,6.60
2014,02,16,03,57,9.00
2014,02,16,03,58,8.00
2014,02,16,03,59,10.60
2014,02,16,04,00,8.80
2014,02,16,04,01,9.10
2014,02,16,04,02,11.60
2014,02,16,04,03,7.90
2014,02,16,04,04,13.00
2014,02,16,04,05,10.40
2014,02,16,04,06,16.10
2014,02,16,04,07,14.10
2014,02,16,04,08,12.60
2014,02,16,04,09,10.70
2014,02,16,04,10,19.70
2014,02,16,04,11,6.20
2014,02,16,04,12,11.90
2014,02,16,04,13,12.40
2014,02,16,04,14,10.70
2014,02,16,04,15,10.30
2014,02,16,04,16,17.90
2014,02,16,04,17,15.20
2014,02,16,04,18,12.90
2014,02,16,04,19,9.20
2014,02,16,04,20,11.50
2014,02,16,04,21,10.50
2014,02,16,04,22,11.80
2014,02,16,04,23,9.60
2014,02,16,04,24,10.90
2014,02,16,04,25,4.90
2014,02,16,04,26,11.30
2014,02,16,04,27,7.20
2014,02,16,04,28,9.80
2014,02,16,04,29,13.80
2014,02,16,04,30,11.10
2014,02,16,04,31,16.60
2014,02,16,04,32,11.30
2014,02,16,04,33,12.20
2014,02,16,04,34,14.50
2014,02,16,04,35,9.90
2014,02,16,04,36,9.20
2014,02,16,04,37,12.10
2014,02,16,04,38,16.00
2014,02,16,04,39,10.20
2014,02,16,04,40,20.10
2014,02,16,04,41,16.30
2014,02,16,04,42,10.00
2014,02,16,04,43,10.50
2014,02,16,04,44,10.80
2014,02,16,04,45,13.80
2014,02,16,04,46,21.20
2014,02,16,04,47,19.90
2014,02,16,04,48,21.80
2014,02,16,04,49,15.50
2014,02,16,04,50,19.10
2014,02,16,04,51,9.00
2014,02,16,04,52,7.50
2014,02,16,04,53,5.10
2014,02,16,04,54,5.50
2014,02,16,04,55,7.20
2014,02,16,04,56,8.30
2014,02,16,04,57,9.10
2014,02,16,04,58,7.50
2014,02,16,04,59,6.90
2014,02,16,05,00,6.40
2014,02,16,05,01,5.60
2014,02,16,05,02,4.30
2014,02,16,05,03,6.00
2014,02,16,05,04,4.70
2014,02,16,05,05,5.40
2014,02,16,05,06,11.60
2014,02,16,05,07,9.30
2014,02,16,05,08,6.70
2014,02,16,05,09,4.30
2014,02,16,05,10,4.10
2014,02,16,05,11,4.80
2014,02,16,05,12,4.00
2014,02,16,05,13,2.00
2014,02,16,05,14,2.60
2014,02,16,05,15,1.50
2014,02,16,05,16,5.70
2014,02,16,05,17,6.00
2014,02,16,05,18,11.30
2014,02,16,05,19,6.70
2014,02,16,05,20,10.50
2014,02,16,05,21,9.90
2014,02,16,05,22,6.70
2014,02,16,05,23,7.40
2014,02,16,05,24,7.70
2014,02,16,05,25,5.60
2014,02,16,05,26,1.40
2014,02,16,05,27,8.10
2014,02,16,05,28,7.60
2014,02,16,05,29,5.20
2014,02,16,05,30,3.30
2014,02,16,05,31,10.30
2014,02,16,05,32,5.70
2014,02,16,05,33,5.60
2014,02,16,05,34,4.20
2014,02,16,05,35,6.00
2014,02,16,05,36,8.30
2014,02,16,05,37,9.10
2014,02,16,05,38,9.90
2014,02,16,05,39,8.00
2014,02,16,05,40,10.40
2014,02,16,05,41,10.50
2014,02,16,05,42,8.50
2014,02,16,05,43,7.60
2014,02,16,05,44,8.90
2014,02,16,05,45,11.00
2014,02,16,05,46,7.70
2014,02,16,05,47,9.80
2014,02,16,05,48,10.00
2014,02,16,05,49,8.90
2014,02,16,05,50,8.90
2014,02,16,05,51,7.90
2014,02,16,05,52,9.70
2014,02,16,05,53,12.00
2014,02,16,05,54,12.60
2014,02,16,05,55,8.10
2014,02,16,05,56,9.00
2014,02,16,05,57,8.00
2014,02,16,05,58,9.10
2014,02,16,05,59,5.10
2014,02,16,06,00,4.50
2014,02,16,06,01,6.10
2014,02,16,06,02,5.90
2014,02,16,06,03,6.40
2014,02,16,06,04,7.20
2014,02,16,06,05,8.10
2014,02,16,06,06,4.80
2014,02,16,06,07,6.40
2014,02,16,06,08,6.10
2014,02,16,06,09,5.80
2014,02,16,06,10,3.90
2014,02,16,06,11,5.60
2014,02,16,06,12,4.50
2014,02,16,06,13,5.80
2014,02,16,06,14,5.00
2014,02,16,06,15,8.90
2014,02,16,06,16,8.20
2014,02,16,06,17,3.80
2014,02,16,06,18,7.80
2014,02,16,06,19,7.90
2014,02,16,06,20,4.00
2014,02,16,06,21,8.00
2014,02,16,06,22,6.20
2014,02,16,06,23,3.60
2014,02,16,06,24,5.90
2014,02,16,06,25,3.70
2014,02,16,06,26,5.40
2014,02,16,06,27,4.80
2014,02,16,06,28,6.20
2014,02,16,06,29,6.00
2014,02,16,06,30,2.20
2014,02,16,06,31,1.90
2014,02,16,06,32,6.90
2014,02,16,06,33,3.70
2014,02,16,06,34,9.50
2014,02,16,06,35,8.00
2014,02,16,06,36,14.20
2014,02,16,06,37,8.80
2014,02,16,06,38,12.60
2014,02,16,06,39,6.80
2014,02,16,06,40,6.40
2014,02,16,06,41,11.50
2014,02,16,06,42,11.10
2014,02,16,06,43,13.40
2014,02,16,06,44,8.70
2014,02,16,06,45,8.50
2014,02,16,06,46,8.00
2014,02,16,06,47,6.90
2014,02,16,06,48,10.10
2014,02,16,06,49,18.20
2014,02,16,06,50,16.30
2014,02,16,06,51,10.00
2014,02,16,06,52,4.80
2014,02,16,06,53,6.10
2014,02,16,06,54,8.60
2014,02,16,06,55,11.80
2014,02,16,06,56,4.10
2014,02,16,06,57,7.60
2014,02,16,06,58,6.80
2014,02,16,06,59,6.10
2014,02,16,07,00,7.40
2014,02,16,07,01,5.90
2014,02,16,07,02,2.50
2014,02,16,07,03,8.30
2014,02,16,07,04,5.90
2014,02,16,07,05,6.60
2014,02,16,07,06,4.50
2014,02,16,07,07,10.90
2014,02,16,07,08,5.10
2014,02,16,07,09,6.30
2014,02,16,07,10,5.60
2014,02,16,07,11,6.50
2014,02,16,07,12,7.30
2014,02,16,07,13,6.90
2014,02,16,07,14,8.50
2014,02,16,07,15,3.90
2014,02,16,07,16,6.40
2014,02,16,07,17,5.10
2014,02,16,07,18,2.40
2014,02,16,07,19,2.70
2014,02,16,07,20,3.90
2014,02,16,07,21,4.30
2014,02,16,07,22,4.50
2014,02,16,07,23,8.60
2014,02,16,07,24,4.60
2014,02,16,07,25,3.40
2014,02,16,07,26,4.80
2014,02,16,07,27,2.70
2014,02,16,07,28,5.50
2014,02,16,07,29,5.30
2014,02,16,07,30,6.10
2014,02,16,07,31,7.90
2014,02,16,07,32,6.60
2014,02,16,07,33,9.70
2014,02,16,07,34,6.60
2014,02,16,07,35,9.10
2014,02,16,07,36,5.10
2014,02,16,07,37,5.10
2014,02,16,07,38,5.60
2014,02,16,07,39,10.60
2014,02,16,07,40,4.70
2014,02,16,07,41,6.30
2014,02,16,07,42,7.00
2014,02,16,07,43,5.90
2014,02,16,07,44,7.90
2014,02,16,07,45,4.90
2014,02,16,07,46,3.20
2014,02,16,07,47,0.90
2014,02,16,07,48,4.40
2014,02,16,07,49,5.10
2014,02,16,07,50,5.30
2014,02,16,07,51,2.70
2014,02,16,07,52,2.50
2014,02,16,07,53,2.60
2014,02,16,07,54,3.20
2014,02,16,07,55,1.70
2014,02,16,07,56,4.00
2014,02,16,07,57,0.40
2014,02,16,07,58,1.40
2014,02,16,07,59,2.20
2014,02,16,08,00,2.20
2014,02,16,08,01,3.50
2014,02,16,08,02,1.40
2014,02,16,08,03,3.10
2014,02,16,08,04,6.00
2014,02,16,08,05,3.50
2014,02,16,08,06,4.00
2014,02,16,08,07,6.00
2014,02,16,08,08,4.40
2014,02,16,08,09,5.30
2014,02,16,08,10,5.60
2014,02,16,08,11,3.20
2014,02,16,08,12,8.90
2014,02,16,08,13,5.70
2014,02,16,08,14,4.30
2014,02,16,08,15,5.30
2014,02,16,08,16,8.50
2014,02,16,08,17,6.90
2014,02,16,08,18,4.50
2014,02,16,08,19,4.50
2014,02,16,08,20,6.70
2014,02,16,08,21,3.50
2014,02,16,08,22,5.30
2014,02,16,08,23,6.70
2014,02,16,08,24,6.40
2014,02,16,08,25,5.70
2014,02,16,08,26,6.00
2014,02,16,08,27,6.30
2014,02,16,08,28,9.00
2014,02,16,08,29,6.40
2014,02,16,08,30,5.90
2014,02,16,08,31,5.70
2014,02,16,08,32,4.50
2014,02,16,08,33,4.50
2014,02,16,08,34,4.10
2014,02,16,08,35,3.30
2014,02,16,08,36,1.80
2014,02,16,08,37,3.20
2014,02,16,08,38,2.20
2014,02,16,08,39,4.10
2014,02,16,08,40,5.60
2014,02,16,08,41,5.00
2014,02,16,08,42,4.80
2014,02,16,08,43,4.70
2014,02,16,08,44,4.00
2014,02,16,08,45,4.30
2014,02,16,08,46,4.30
2014,02,16,08,47,5.30
2014,02,16,08,48,4.10
2014,02,16,08,49,3.80
2014,02,16,08,50,3.60
2014,02,16,08,51,3.50
2014,02,16,08,52,4.20
2014,02,16,08,53,1.80
2014,02,16,08,54,6.00
2014,02,16,08,55,4.30
2014,02,16,08,56,4.50
2014,02,16,08,57,3.50
2014,02,16,08,58,6.40
2014,02,16,08,59,6.00
2014,02,16,09,00,4.40
2014,02,16,09,01,3.00
2014,02,16,09,02,3.10
2014,02,16,09,03,7.90
2014,02,16,09,04,4.70
2014,02,16,09,05,4.90
2014,02,16,09,06,3.00
2014,02,16,09,07,10.40
2014,02,16,09,08,4.80
2014,02,16,09,09,5.90
2014,02,16,09,10,6.10
2014,02,16,09,11,6.00
2014,02,16,09,12,4.70
2014,02,16,09,13,7.80
2014,02,16,09,14,6.60
2014,02,16,09,15,5.80
2014,02,16,09,16,8.30
2014,02,16,09,17,8.70
2014,02,16,09,18,6.70
2014,02,16,09,19,4.50
2014,02,16,09,20,3.90
2014,02,16,09,21,5.20
2014,02,16,09,22,10.10
2014,02,16,09,23,8.60
2014,02,16,09,24,4.30
2014,02,16,09,25,4.70
2014,02,16,09,26,7.30
2014,02,16,09,27,6.40
2014,02,16,09,28,5.90
2014,02,16,09,29,6.20
2014,02,16,09,30,5.80
2014,02,16,09,31,5.90
2014,02,16,09,32,4.50
2014,02,16,09,33,3.50
2014,02,16,09,34,1.10
2014,02,16,09,35,3.50
2014,02,16,09,36,4.20
2014,02,16,09,37,5.80
2014,02,16,09,38,5.70
2014,02,16,09,39,5.30
2014,02,16,09,40,4.80
2014,02,16,09,41,5.30
2014,02,16,09,42,5.70
2014,02,16,09,43,6.40
2014,02,16,09,44,5.50
2014,02,16,09,45,7.70
2014,02,16,09,46,8.80
2014,02,16,09,47,5.90
2014,02,16,09,48,6.40
2014,02,16,09,49,6.20
2014,02,16,09,50,8.80
2014,02,16,09,51,11.20
2014,02,16,09,52,6.50
2014,02,16,09,53,8.90
2014,02,16,09,54,13.80
2014,02,16,09,55,11.50
2014,02,16,09,56,9.00
2014,02,16,09,57,7.70
2014,02,16,09,58,7.90
2014,02,16,09,59,14.60
2014,02,16,10,00,11.10
2014,02,16,10,01,6.30
2014,02,16,10,02,5.50
2014,02,16,10,03,7.00
2014,02,16,10,04,4.10
2014,02,16,10,05,4.70
2014,02,16,10,06,8.20
2014,02,16,10,07,8.50
2014,02,16,10,08,7.20
2014,02,16,10,09,5.60
2014,02,16,10,10,6.30
2014,02,16,10,11,13.00
2014,02,16,10,12,9.40
2014,02,16,10,13,10.80
2014,02,16,10,14,7.20
2014,02,16,10,15,8.30
2014,02,16,10,16,6.00
2014,02,16,10,17,8.50
2014,02,16,10,18,8.50
2014,02,16,10,19,11.10
2014,02,16,10,20,17.50
2014,02,16,10,21,15.40
2014,02,16,10,22,9.20
2014,02,16,10,23,11.10
2014,02,16,10,24,11.50
2014,02,16,10,25,9.60
2014,02,16,10,26,11.10
2014,02,16,10,27,16.10
2014,02,16,10,28,14.20
2014,02,16,10,29,9.30
2014,02,16,10,30,11.00
2014,02,16,10,31,10.50
2014,02,16,10,32,7.20
2014,02,16,10,33,7.00
2014,02,16,10,34,5.40
2014,02,16,10,35,6.40
2014,02,16,10,36,6.40
2014,02,16,10,37,7.30
2014,02,16,10,38,6.10
2014,02,16,10,39,4.70
2014,02,16,10,40,5.20
2014,02,16,10,41,5.40
2014,02,16,10,42,5.70
2014,02,16,10,43,6.40
2014,02,16,10,44,4.40
2014,02,16,10,45,6.70
2014,02,16,10,46,3.90
2014,02,16,10,47,4.00
2014,02,16,10,48,5.90
2014,02,16,10,49,5.80
2014,02,16,10,50,6.20
2014,02,16,10,51,4.60
2014,02,16,10,52,6.20
2014,02,16,10,53,5.40
2014,02,16,10,54,3.60
2014,02,16,10,55,5.50
2014,02,16,10,56,4.20
2014,02,16,10,57,1.70
2014,02,16,10,58,2.70
2014,02,16,10,59,5.00
2014,02,16,11,00,8.60
2014,02,16,11,01,8.50
2014,02,16,11,02,10.10
2014,02,16,11,03,7.20
2014,02,16,11,04,8.70
2014,02,16,11,05,10.10
2014,02,16,11,06,14.10
2014,02,16,11,07,11.30
2014,02,16,11,08,14.10
2014,02,16,11,09,12.60
2014,02,16,11,10,12.90
2014,02,16,11,11,12.80
2014,02,16,11,12,8.80
2014,02,16,11,13,17.70
2014,02,16,11,14,15.90
2014,02,16,11,15,19.10
2014,02,16,11,16,13.70
2014,02,16,11,17,9.00
2014,02,16,11,18,8.70
2014,02,16,11,19,8.60
2014,02,16,11,20,14.10
2014,02,16,11,21,15.70
2014,02,16,11,22,15.40
2014,02,16,11,23,20.40
2014,02,16,11,24,16.50
2014,02,16,11,25,10.60
2014,02,16,11,26,13.60
2014,02,16,11,27,9.20
2014,02,16,11,28,17.10
2014,02,16,11,29,12.30
2014,02,16,11,30,14.80
2014,02,16,11,31,10.40
2014,02,16,11,32,10.00
2014,02,16,11,33,9.80
2014,02,16,11,34,14.60
2014,02,16,11,35,15.00
2014,02,16,11,36,16.90
2014,02,16,11,37,15.50
2014,02,16,11,38,8.60
2014,02,16,11,39,8.60
2014,02,16,11,40,8.90
2014,02,16,11,41,15.20
2014,02,16,11,42,9.60
2014,02,16,11,43,8.80
2014,02,16,11,44,10.80
2014,02,16,11,45,15.80
2014,02,16,11,46,17.40
2014,02,16,11,47,10.10
2014,02,16,11,48,11.10
2014,02,16,11,49,18.80
2014,02,16,11,50,12.70
2014,02,16,11,51,20.50
2014,02,16,11,52,18.20
2014,02,16,11,53,19.90
2014,02,16,11,54,16.70
2014,02,16,11,55,18.70
2014,02,16,11,56,15.00
2014,02,16,11,57,14.00
2014,02,16,11,58,22.40
2014,02,16,11,59,17.10
2014,02,16,12,00,22.00
2014,02,16,12,01,22.90
2014,02,16,12,02,20.10
2014,02,16,12,03,19.50
2014,02,16,12,04,18.70
2014,02,16,12,05,13.70
2014,02,16,12,06,13.40
2014,02,16,12,07,7.10
2014,02,16,12,08,15.80
2014,02,16,12,09,16.00
2014,02,16,12,10,17.70
2014,02,16,12,11,10.90
2014,02,16,12,12,8.50
2014,02,16,12,13,11.40
2014,02,16,12,14,13.00
2014,02,16,12,15,11.10
2014,02,16,12,16,11.60
2014,02,16,12,17,15.60
2014,02,16,12,18,10.90
2014,02,16,12,19,16.40
2014,02,16,12,20,13.10
2014,02,16,12,21,11.00
2014,02,16,12,22,11.90
2014,02,16,12,23,14.20
2014,02,16,12,24,14.20
2014,02,16,12,25,10.30
2014,02,16,12,26,6.30
2014,02,16,12,27,9.10
2014,02,16,12,28,14.70
2014,02,16,12,29,15.30
2014,02,16,12,30,12.90
2014,02,16,12,31,17.60
2014,02,16,12,32,16.60
2014,02,16,12,33,17.60
2014,02,16,12,34,18.70
2014,02,16,12,35,15.20
2014,02,16,12,36,13.70
2014,02,16,12,37,21.50
2014,02,16,12,38,18.70
2014,02,16,12,39,16.10
2014,02,16,12,40,15.30
2014,02,16,12,41,18.10
2014,02,16,12,42,15.50
2014,02,16,12,43,16.60
2014,02,16,12,44,15.70
2014,02,16,12,45,13.80
2014,02,16,12,46,10.70
2014,02,16,12,47,13.70
2014,02,16,12,48,12.50
2014,02,16,12,49,13.80
2014,02,16,12,50,11.80
2014,02,16,12,51,6.20
2014,02,16,12,52,5.30
2014,02,16,12,53,8.90
2014,02,16,12,54,9.30
2014,02,16,12,55,14.90
2014,02,16,12,56,15.00
2014,02,16,12,57,14.80
2014,02,16,12,58,13.00
2014,02,16,12,59,16.40
2014,02,16,13,00,20.30
2014,02,16,13,01,16.80
2014,02,16,13,02,12.30
2014,02,16,13,03,10.60
2014,02,16,13,04,9.70
2014,02,16,13,05,12.00
2014,02,16,13,06,9.90
2014,02,16,13,07,10.80
2014,02,16,13,08,11.90
2014,02,16,13,09,14.70
2014,02,16,13,10,7.60
2014,02,16,13,11,13.80
2014,02,16,13,12,7.20
2014,02,16,13,13,9.30
2014,02,16,13,14,8.50
2014,02,16,13,15,14.20
2014,02,16,13,16,9.90
2014,02,16,13,17,9.30
2014,02,16,13,18,8.60
2014,02,16,13,19,9.30
2014,02,16,13,20,9.70
2014,02,16,13,21,11.50
2014,02,16,13,22,11.70
2014,02,16,13,23,11.10
2014,02,16,13,24,9.20
2014,02,16,13,25,10.50
2014,02,16,13,26,13.80
2014,02,16,13,27,15.40
2014,02,16,13,28,13.40
2014,02,16,13,29,12.20
2014,02,16,13,30,7.90
2014,02,16,13,31,9.80
2014,02,16,13,32,10.70
2014,02,16,13,33,11.90
2014,02,16,13,34,10.60
2014,02,16,13,35,11.70
2014,02,16,13,36,12.30
2014,02,16,13,37,9.70
2014,02,16,13,38,14.70
2014,02,16,13,39,12.60
2014,02,16,13,40,11.80
2014,02,16,13,41,10.90
2014,02,16,13,42,14.20
2014,02,16,13,43,9.70
2014,02,16,13,44,10.00
2014,02,16,13,45,8.90
2014,02,16,13,46,8.50
2014,02,16,13,47,12.50
2014,02,16,13,48,8.40
2014,02,16,13,49,6.20
2014,02,16,13,50,8.60
2014,02,16,13,51,10.80
2014,02,16,13,52,9.90
2014,02,16,13,53,13.00
2014,02,16,13,54,10.30
2014,02,16,13,55,9.00
2014,02,16,13,56,13.00
2014,02,16,13,57,10.40
2014,02,16,13,58,6.50
2014,02,16,13,59,8.60
2014,02,16,14,00,6.40
2014,02,16,14,01,7.70
2014,02,16,14,02,6.00
2014,02,16,14,03,6.70
2014,02,16,14,04,4.40
2014,02,16,14,05,5.30
2014,02,16,14,06,5.30
2014,02,16,14,07,10.00
2014,02,16,14,08,12.60
2014,02,16,14,09,8.30
2014,02,16,14,10,10.20
2014,02,16,14,11,10.70
2014,02,16,14,12,9.10
2014,02,16,14,13,6.80
2014,02,16,14,14,9.10
2014,02,16,14,15,3.70
2014,02,16,14,16,8.30
2014,02,16,14,17,7.70
2014,02,16,14,18,4.80
2014,02,16,14,19,0.60
2014,02,16,14,20,2.00
2014,02,16,14,21,5.90
2014,02,16,14,22,4.60
2014,02,16,14,23,6.80
2014,02,16,14,24,6.40
2014,02,16,14,25,8.40
2014,02,16,14,26,11.20
2014,02,16,14,27,12.80
2014,02,16,14,28,11.80
2014,02,16,14,29,9.90
2014,02,16,14,30,18.00
2014,02,16,14,31,11.50
2014,02,16,14,32,8.00
2014,02,16,14,33,17.70
2014,02,16,14,34,15.20
2014,02,16,14,35,20.40
2014,02,16,14,36,12.60
2014,02,16,14,37,14.20
2014,02,16,14,38,12.20
2014,02,16,14,39,14.20
2014,02,16,14,40,22.20
2014,02,16,14,41,13.80
2014,02,16,14,42,15.80
2014,02,16,14,43,16.90
2014,02,16,14,44,16.10
2014,02,16,14,45,20.10
2014,02,16,14,46,19.10
2014,02,16,14,47,18.80
2014,02,16,14,48,8.90
2014,02,16,14,49,18.50
2014,02,16,14,50,18.70
2014,02,16,14,51,14.60
2014,02,16,14,52,25.00
2014,02,16,14,53,20.80
2014,02,16,14,54,18.10
2014,02,16,14,55,13.00
2014,02,16,14,56,15.40
2014,02,16,14,57,20.50
2014,02,16,14,58,17.50
2014,02,16,14,59,16.00
2014,02,16,15,00,12.60
2014,02,16,15,01,15.50
2014,02,16,15,02,15.40
2014,02,16,15,03,20.40
2014,02,16,15,04,14.10
2014,02,16,15,05,13.50
2014,02,16,15,06,21.60
2014,02,16,15,07,12.50
2014,02,16,15,08,9.40
2014,02,16,15,09,15.70
2014,02,16,15,10,16.60
2014,02,16,15,11,18.30
2014,02,16,15,12,18.50
2014,02,16,15,13,21.10
2014,02,16,15,14,17.50
2014,02,16,15,15,13.40
2014,02,16,15,16,14.00
2014,02,16,15,17,19.40
2014,02,16,15,18,13.90
2014,02,16,15,19,23.30
2014,02,16,15,20,20.90
2014,02,16,15,21,27.00
2014,02,16,15,22,25.20
2014,02,16,15,23,19.10
2014,02,16,15,24,17.00
2014,02,16,15,25,17.40
2014,02,16,15,26,16.90
2014,02,16,15,27,18.60
2014,02,16,15,28,22.60
2014,02,16,15,29,17.30
2014,02,16,15,30,16.60
2014,02,16,15,31,21.40
2014,02,16,15,32,16.30
2014,02,16,15,33,21.20
2014,02,16,15,34,18.50
2014,02,16,15,35,18.30
2014,02,16,15,36,15.00
2014,02,16,15,37,19.50
2014,02,16,15,38,30.10
2014,02,16,15,39,21.50
2014,02,16,15,40,13.10
2014,02,16,15,41,17.00
2014,02,16,15,42,19.70
2014,02,16,15,43,19.20
2014,02,16,15,44,26.40
2014,02,16,15,45,25.80
2014,02,16,15,46,11.80
2014,02,16,15,47,18.00
2014,02,16,15,48,22.80
2014,02,16,15,49,10.10
2014,02,16,15,50,25.50
2014,02,16,15,51,22.80
2014,02,16,15,52,24.30
2014,02,16,15,53,23.10
2014,02,16,15,54,13.40
2014,02,16,15,55,13.70
2014,02,16,15,56,12.90
2014,02,16,15,57,9.70
2014,02,16,15,58,13.60
2014,02,16,15,59,5.50
2014,02,16,16,00,6.20
2014,02,16,16,01,8.20
2014,02,16,16,02,16.60
2014,02,16,16,03,15.00
2014,02,16,16,04,12.70
2014,02,16,16,05,18.50
2014,02,16,16,06,10.10
2014,02,16,16,07,14.50
2014,02,16,16,08,18.40
2014,02,16,16,09,14.80
2014,02,16,16,10,17.20
2014,02,16,16,11,15.40
2014,02,16,16,12,10.90
2014,02,16,16,13,7.20
2014,02,16,16,14,9.70
2014,02,16,16,15,18.10
2014,02,16,16,16,10.80
2014,02,16,16,17,13.30
2014,02,16,16,18,23.80
2014,02,16,16,19,13.90
2014,02,16,16,20,13.00
2014,02,16,16,21,12.00
2014,02,16,16,22,8.40
2014,02,16,16,23,20.30
2014,02,16,16,24,20.20
2014,02,16,16,25,18.80
2014,02,16,16,26,10.50
2014,02,16,16,27,16.00
2014,02,16,16,28,14.20
2014,02,16,16,29,18.90
2014,02,16,16,30,17.40
2014,02,16,16,31,13.90
2014,02,16,16,32,10.10
2014,02,16,16,33,15.50
2014,02,16,16,34,15.10
2014,02,16,16,35,15.40
2014,02,16,16,36,24.30
2014,02,16,16,37,14.50
2014,02,16,16,38,12.00
2014,02,16,16,39,22.90
2014,02,16,16,40,18.40
2014,02,16,16,41,26.00
2014,02,16,16,42,15.80
2014,02,16,16,43,20.60
2014,02,16,16,44,19.90
2014,02,16,16,45,19.60
2014,02,16,16,46,14.60
2014,02,16,16,47,13.50
2014,02,16,16,48,18.90
2014,02,16,16,49,17.20
2014,02,16,16,50,14.20
2014,02,16,16,51,18.50
2014,02,16,16,52,15.60
2014,02,16,16,53,21.20
2014,02,16,16,54,27.50
2014,02,16,16,55,20.20
2014,02,16,16,56,24.00
2014,02,16,16,57,24.40
2014,02,16,16,58,20.80
2014,02,16,16,59,21.70
2014,02,16,17,00,12.60
2014,02,16,17,01,19.50
2014,02,16,17,02,21.90
2014,02,16,17,03,21.10
2014,02,16,17,04,13.80
2014,02,16,17,05,21.80
2014,02,16,17,06,17.30
2014,02,16,17,07,20.20
2014,02,16,17,08,19.60
2014,02,16,17,09,23.50
2014,02,16,17,10,27.40
2014,02,16,17,11,23.40
2014,02,16,17,12,27.20
2014,02,16,17,13,24.10
2014,02,16,17,14,23.80
2014,02,16,17,15,18.80
2014,02,16,17,16,18.30
2014,02,16,17,17,22.40
2014,02,16,17,18,16.60
2014,02,16,17,19,29.90
2014,02,16,17,20,27.70
2014,02,16,17,21,26.60
2014,02,16,17,22,24.90
2014,02,16,17,23,20.00
2014,02,16,17,24,30.30
2014,02,16,17,25,24.60
2014,02,16,17,26,26.00
2014,02,16,17,27,19.00
2014,02,16,17,28,26.00
2014,02,16,17,29,20.50
2014,02,16,17,30,20.70
2014,02,16,17,31,16.90
2014,02,16,17,32,29.80
2014,02,16,17,33,15.80
2014,02,16,17,34,30.50
2014,02,16,17,35,26.00
2014,02,16,17,36,25.20
2014,02,16,17,37,23.70
2014,02,16,17,38,27.00
2014,02,16,17,39,14.60
2014,02,16,17,40,26.50